METLOCID,DATE_TIME,AVG_RH,STDDEV_RH,MIN_RH,MAX_RH,N_RH,AVG_RH1M,STDDEV_RH1M,MIN_RH1M,MAX_RH1M,N_RH1M,N_COMMENTS
HODM,11/26/93,87.785,15.26696106,68.39,99.99,4,,,,,0,2
HODM,11/27/93,98.4475,1.346824307,95.97,99.99,8,,,,,0,2
HODM,11/28/93,86.60125,7.961052403,76.37,96.64,8,,,,,0,0
HODM,11/29/93,74.17,14.65489094,58.53,97.05,8,,,,,0,0
HODM,11/30/93,65.40125,9.238599828,55.85,77.69,8,,,,,0,0
HODM,12/1/93,64.55875,4.245947438,59.63,72.71,8,,,,,0,0
HODM,12/2/93,75.6125,10.21085942,61,91.11,8,,,,,0,0
HODM,12/3/93,79.54333333,6.218737722,69.33,91.52,30,,,,,0,0
HODM,12/4/93,85.95,4.19634897,79.24,94.03,48,,,,,0,0
HODM,12/5/93,77.65333333,6.743878653,65.17,90.7,48,,,,,0,0
HODM,12/6/93,64.944375,7.290180486,53.66,75.82,48,,,,,0,0
HODM,12/7/93,63.39645833,2.849239906,57.68,69.46,48,,,,,0,0
HODM,12/8/93,78.07916667,4.977768377,70.23,91.51,48,,,,,0,0
HODM,12/9/93,67.778125,6.98921834,57.77,79.37,48,,,,,0,0
HODM,12/10/93,62.59625,5.15714527,54.91,73.32,48,,,,,0,0
HODM,12/11/93,62.210625,6.339314483,50.55,74.2,48,,,,,0,0
HODM,12/12/93,75.43291667,7.970469689,61.77,96.59,48,,,,,0,0
HODM,12/13/93,79.77791667,9.695917315,63.32,97.3,48,,,,,0,0
HODM,12/14/93,67.49166667,6.949408771,56.05,78.57,48,,,,,0,0
HODM,12/15/93,54.268125,11.96051779,26.69,68.92,48,,,,,0,0
HODM,12/16/93,25.01708333,1.446205539,23.38,27.82,48,,,,,0,0
HODM,12/17/93,33.99604167,10.10262863,23.47,65.89,48,,,,,0,0
HODM,12/18/93,60.529375,10.1764349,41.77,73.68,48,,,,,0,0
HODM,12/19/93,65.40541667,12.09400941,53.8,94.56,48,,,,,0,0
HODM,12/20/93,93.81395833,11.96042512,68.05,99.99,48,,,,,0,37
HODM,12/21/93,99.99,0,99.99,99.99,48,,,,,0,48
HODM,12/22/93,91.69208333,7.613941289,68.7,99.99,48,,,,,0,14
HODM,12/23/93,89.38541667,8.406336252,65.07,99.57,48,,,,,0,0
HODM,12/24/93,81.07604167,10.15184895,63.96,99.99,48,,,,,0,1
HODM,12/25/93,75.54826087,10.61263446,58.5,96.09,46,,,,,0,0
HODM,12/26/93,54.89875,10.71777836,35.38,73.89,48,,,,,0,0
HODM,12/27/93,59.08458333,6.263249092,51.99,78.25,48,,,,,0,0
HODM,12/28/93,87.7625,9.455400011,68.52,99.99,48,,,,,0,2
HODM,12/29/93,72.351875,11.82049224,49.84,91.01,48,,,,,0,0
HODM,12/30/93,43.29020833,7.963652399,26.4,61.1,48,,,,,0,0
HODM,12/31/93,48.89916667,4.029602078,39.22,55.65,48,,,,,0,0
HODM,1/1/94,46.73270833,5.074307725,38.7,57.37,48,,,,,0,0
HODM,1/2/94,47.55520833,5.282951299,42.1,58.97,48,,,,,0,0
HODM,1/3/94,55.13625,2.463873982,51.66,60.47,48,,,,,0,0
HODM,1/4/94,63.786875,14.18705811,49.8,99.81,48,,,,,0,0
HODM,1/5/94,75.27,10.52818487,61.6,98.66,48,,,,,0,0
HODM,1/6/94,79.87291667,6.73055717,69.3,97.33,48,,,,,0,0
HODM,1/7/94,59.38041667,8.260433237,47.6,83.73,48,,,,,0,0
HODM,1/8/94,58.74375,7.503987486,48.6,72.85,48,,,,,0,0
HODM,1/9/94,51.60958333,3.274519265,43.8,60.14,48,,,,,0,0
HODM,1/10/94,50.98083333,6.301505336,41.5,61.65,48,,,,,0,0
HODM,1/11/94,64.44083333,6.133028766,51.62,77.9,48,,,,,0,0
HODM,1/12/94,51.55466667,5.244167028,42,61.05,30,,,,,0,0
HODM,1/13/94,55.775,9.488383876,47,73.53,8,,,,,0,0
HODM,1/14/94,52.705,5.593846109,45.06,61.69,8,,,,,0,0
HODM,1/15/94,49.36125,4.731551958,43.77,55.69,8,,,,,0,0
HODM,1/16/94,97.32875,7.339086042,79.17,99.99,8,,,,,0,6
HODM,1/17/94,91.00375,9.859405861,76.35,99.99,8,,,,,0,3
HODM,1/18/94,69.87625,11.05410581,54.3,87.8,8,,,,,0,0
HODM,1/19/94,65.63,6.332523758,57.86,76.29,8,,,,,0,0
HODM,1/20/94,57.05125,5.178542094,50.6,65.48,8,,,,,0,0
HODM,1/21/94,63.72625,9.760165305,47.26,73.84,8,,,,,0,0
HODM,1/22/94,64.83625,4.126786842,60.8,71.93,8,,,,,0,0
HODM,1/23/94,61.265,18.06520887,39.71,99.99,8,,,,,0,1
HODM,1/24/94,82.425,16.6058802,58.21,99.99,8,,,,,0,3
HODM,1/25/94,77.09875,9.31497019,62.99,91.05,8,,,,,0,0
HODM,1/26/94,78.74125,15.19526001,64.31,99.99,8,,,,,0,2
HODM,1/27/94,71.71125,10.26451785,56.45,89.54,8,,,,,0,0
HODM,1/28/94,83.145,7.439475788,73.33,94.13,8,,,,,0,0
HODM,1/29/94,97.83375,5.143017284,85.3,99.99,8,,,,,0,6
HODM,1/30/94,94.72,5.945814855,87.31,99.99,8,,,,,0,3
HODM,1/31/94,73.17875,14.57972314,55.76,93.73,8,,,,,0,0
HODM,2/1/94,83.8725,12.75680855,68.66,99.99,8,,,,,0,2
HODM,2/2/94,62.79875,4.933991249,56.02,70.81,8,,,,,0,0
HODM,2/3/94,98.26625,4.851303028,86.26,99.99,8,,,,,0,6
HODM,2/4/94,91.4275,8.819761497,79.16,99.99,8,,,,,0,3
HODM,2/5/94,87.7025,9.118193352,72.85,99.99,8,,,,,0,2
HODM,2/6/94,95.105,4.46389324,89.19,99.99,8,,,,,0,2
HODM,2/7/94,74.09625,18.87451792,49.38,99.99,8,,,,,0,1
HODM,2/8/94,64.79875,5.008006269,56.2,69.7,8,,,,,0,0
HODM,2/9/94,69.9925,19.94615305,49.36,99.99,8,,,,,0,2
HODM,2/10/94,90.63125,9.153571415,79.95,99.99,8,,,,,0,3
HODM,2/11/94,71.77,18.39374428,49.74,99.99,8,,,,,0,1
HODM,2/12/94,89.5425,8.832331435,79.88,99.99,8,,,,,0,3
HODM,2/13/94,67.0525,11.38290918,57.24,84.56,8,,,,,0,0
HODM,2/14/94,59.8575,5.422128602,49.63,68.24,8,,,,,0,0
HODM,2/15/94,60.69375,19.95623135,37.87,91.01,8,,,,,0,0
HODM,2/16/94,56.15,9.719022585,41.66,69.73,8,,,,,0,0
HODM,2/17/94,46.05,8.270448252,35.64,58.34,8,,,,,0,0
HODM,2/18/94,47.675,12.25770661,34.4,74.48,8,,,,,0,0
HODM,2/19/94,92.64625,4.753269364,84.37,97.26,8,,,,,0,0
HODM,2/20/94,78.29125,17.36560512,55.91,98.83,8,,,,,0,0
HODM,2/21/94,73.99,17.69339344,47.92,97.13,8,,,,,0,0
HODM,2/22/94,56.99875,3.833422333,49.3,61.17,8,,,,,0,0
HODM,2/23/94,54.68375,4.138498477,47.72,60.67,8,,,,,0,0
HODM,2/24/94,45.54125,7.856335819,33.02,57.25,8,,,,,0,0
HODM,2/25/94,54.62125,7.118315285,46.45,65.57,8,,,,,0,0
HODM,2/26/94,63.17875,2.425009205,59.85,67,8,,,,,0,0
HODM,2/27/94,57.81625,5.50005698,51.11,66.23,8,,,,,0,0
HODM,2/28/94,50.52625,7.11396401,37.09,58.16,8,,,,,0,0
HODM,3/1/94,49.30125,5.974339025,37.62,53.66,8,,,,,0,0
HODM,3/2/94,47.7825,7.197512963,34.34,53.51,8,,,,,0,0
HODM,3/3/94,59.94375,11.45951375,44.22,81,8,,,,,0,0
HODM,3/4/94,75.325,10.19256171,63.55,95.63,8,,,,,0,0
HODM,3/5/94,84.905,5.816415194,78.31,95.11,8,,,,,0,0
HODM,3/6/94,90.49,3.711788171,85.77,94.38,8,,,,,0,0
HODM,3/7/94,73.08375,14.34687715,52.36,90.4,8,,,,,0,0
HODM,3/8/94,67.61875,3.979028731,62.74,72.47,8,,,,,0,0
HODM,3/9/94,83.7925,7.351304549,69.49,93.15,8,,,,,0,0
HODM,3/10/94,79.6325,11.7508404,64.75,97.12,8,,,,,0,0
HODM,3/11/94,91.815,1.146510233,90.77,93.97,8,,,,,0,0
HODM,3/12/94,81.77875,8.408124366,69.8,93.42,8,,,,,0,0
HODM,3/13/94,80.90125,13.36795576,59.15,97.22,8,,,,,0,0
HODM,3/14/94,82.385,17.6945496,58.29,98.24,8,,,,,0,0
HODM,3/15/94,76.23375,18.28163086,57.35,97.71,8,,,,,0,0
HODM,3/16/94,62.6275,8.310012463,55.49,74.67,8,,,,,0,0
HODM,3/17/94,68.6125,7.265166894,56.91,79.02,8,,,,,0,0
HODM,3/18/94,51.635,1.791711074,49.14,54.94,8,,,,,0,0
HODM,3/19/94,60.15875,9.433324573,52.32,75.73,8,,,,,0,0
HODM,3/20/94,93.4575,1.535073288,89.9,94.63,8,,,,,0,0
HODM,3/21/94,73.54875,12.30066716,58.58,92.53,8,,,,,0,0
HODM,3/22/94,54.295,6.524660911,47.27,68.1,8,,,,,0,0
HODM,3/23/94,70.9,4.868235233,65.12,80.41,8,,,,,0,0
HODM,3/24/94,56.63375,6.485008949,50.45,67.35,8,,,,,0,0
HODM,3/25/94,67.3125,19.79869891,52.47,95.45,8,,,,,0,0
HODM,3/26/94,75.32375,6.605218581,64.65,83.42,8,,,,,0,0
HODM,3/27/94,67.79375,14.15851378,48.67,86.87,8,,,,,0,0
HODM,3/28/94,57.13125,11.9369719,46.03,82.61,8,,,,,0,0
HODM,3/29/94,74.40625,13.69159798,56.95,93.75,8,,,,,0,0
HODM,3/30/94,57.92125,10.74899389,45.18,72.67,8,,,,,0,0
HODM,3/31/94,47.4775,3.55526069,43.81,52.65,8,,,,,0,0
HODM,4/1/94,59.05125,12.40180682,47.16,86.83,8,,,,,0,0
HODM,4/2/94,55.71125,9.844386998,46.13,73.22,8,,,,,0,0
HODM,4/3/94,67.59625,2.77388813,63.42,72.27,8,,,,,0,0
HODM,4/4/94,54.08625,7.156980484,41.01,60.85,8,,,,,0,0
HODM,4/5/94,37.93,2.297178393,36.45,43.33,8,,,,,0,0
HODM,4/6/94,47.775,2.638170362,43.53,52.74,8,,,,,0,0
HODM,4/7/94,41.5025,3.416592914,35.8,45.09,8,,,,,0,0
HODM,4/8/94,66.12,22.5976952,44.21,99.99,8,,,,,0,1
HODM,4/9/94,89.31625,12.66740693,69.26,99.99,8,,,,,0,2
HODM,4/10/94,64.595,9.443744717,56.83,85.18,8,,,,,0,0
HODM,4/11/94,57.775,1.387865782,56.38,59.89,8,,,,,0,0
HODM,4/12/94,61.145,1.579294598,59.47,63.55,8,,,,,0,0
HODM,4/13/94,60.62625,5.425755872,56.93,72.51,8,,,,,0,0
HODM,4/14/94,91.15625,11.34978406,74.99,99.83,8,,,,,0,0
HODM,4/15/94,86.8275,3.348418603,82.26,91.36,8,,,,,0,0
HODM,4/16/94,79.56375,1.569193947,76.68,81.37,8,,,,,0,0
HODM,4/17/94,50.36875,11.13882712,40.07,70.45,8,,,,,0,0
HODM,4/18/94,69.34125,25.55966043,36.74,99.24,8,,,,,0,0
HODM,4/19/94,90.92875,11.03918273,65.94,99.99,8,,,,,0,2
HODM,4/20/94,67.47375,12.30102195,53.99,91.44,8,,,,,0,0
HODM,4/21/94,51.40625,1.949219166,49,55.55,8,,,,,0,0
HODM,4/22/94,73.0375,11.30086059,55.72,84.74,8,,,,,0,0
HODM,4/23/94,89.89375,6.35029794,82.26,95.82,8,,,,,0,0
HODM,4/24/94,60.3175,13.34397751,47.39,78.29,8,,,,,0,0
HODM,4/25/94,78.30875,25.09896665,41.32,96.5,8,,,,,0,0
HODM,4/26/94,59.4675,18.74933732,43.91,93.75,8,,,,,0,0
HODM,4/27/94,48.03375,4.794907827,43.37,55.91,8,,,,,0,0
HODM,4/28/94,87.34875,13.40839762,57.37,95.78,8,,,,,0,0
HODM,4/29/94,95.54875,0.299067002,95.2,95.94,8,,,,,0,0
HODM,4/30/94,91.25875,3.112020187,87.13,94.98,8,,,,,0,0
HODM,5/1/94,74.2175,10.12753919,60.93,86,8,,,,,0,0
HODM,5/2/94,61.09625,5.465078584,53.85,68.9,8,,,,,0,0
HODM,5/3/94,57.81125,10.43427653,44.68,71.22,8,,,,,0,0
HODM,5/4/94,65.92,18.30649611,43.2,91.02,8,,,,,0,0
HODM,5/5/94,59.80875,10.01221887,47.81,74.29,8,,,,,0,0
HODM,5/6/94,57.1275,16.23108019,40.55,82.06,8,,,,,0,0
HODM,5/7/94,90.99375,10.37163569,68.05,98.37,8,,,,,0,0
HODM,5/8/94,90.86125,7.776340376,79.48,98.27,8,,,,,0,0
HODM,5/9/94,61.20875,11.76177396,43.66,73.78,8,,,,,0,0
HODM,5/10/94,80.05,19.82175861,46.23,95.34,8,,,,,0,0
HODM,5/11/94,92.4375,4.573306869,84.39,95.89,8,,,,,0,0
HODM,5/12/94,86.79375,2.433973456,84.39,92.16,8,,,,,0,0
HODM,5/13/94,72.965,11.63659376,55.63,86.43,8,,,,,0,0
HODM,5/14/94,58.97875,1.822231266,55.73,61.88,8,,,,,0,0
HODM,5/15/94,74.89875,12.76479583,61.87,89.4,8,,,,,0,0
HODM,5/16/94,87.7,4.315304988,77.68,90.66,8,,,,,0,0
HODM,5/17/94,87.34375,1.222397381,84.92,88.59,8,,,,,0,0
HODM,5/18/94,87.26875,2.614740837,81.08,88.93,8,,,,,0,0
HODM,5/19/94,70.9425,12.58655944,60,89.05,8,,,,,0,0
HODM,5/20/94,72.015,8.958108857,58.53,80.69,8,,,,,0,0
HODM,5/21/94,47.59125,6.62524703,41.13,57.87,8,,,,,0,0
HODM,5/22/94,61.59625,5.627663655,52.9,68.61,8,,,,,0,0
HODM,5/23/94,58.14375,21.76261732,35.3,85.24,8,,,,,0,0
HODM,5/24/94,80.065,6.108467191,70.98,85,8,,,,,0,0
HODM,5/25/94,61.29375,3.881869717,56.24,68.4,8,,,,,0,0
HODM,5/26/94,42.74125,5.949550853,37.75,54.29,8,,,,,0,0
HODM,5/27/94,83.5725,5.064805031,71.41,86.56,8,,,,,0,0
HODM,5/28/94,71.34,10.72207869,55.82,83.49,8,,,,,0,0
HODM,5/29/94,70.385,5.982775276,60.01,79.17,8,,,,,0,0
HODM,5/30/94,77.72625,13.73986893,52.3,85.91,8,,,,,0,0
HODM,5/31/94,83.9075,3.013037148,77.71,86.74,8,,,,,0,0
HODM,6/1/94,60.0075,14.19448258,43.46,82.29,8,,,,,0,0
HODM,6/2/94,83.93875,1.423109648,82.05,85.44,8,,,,,0,0
HODM,6/3/94,82.57375,3.182707462,75.16,85.6,8,,,,,0,0
HODM,6/4/94,56.77125,8.417250039,42.85,71.45,8,,,,,0,0
HODM,6/5/94,64.01375,14.33777323,44.72,86.17,8,,,,,0,0
HODM,6/6/94,48.09875,3.756500794,39.93,52.01,8,,,,,0,0
HODM,6/7/94,35.7,6.997389309,30.65,52,8,,,,,0,0
HODM,6/8/94,40.7875,6.344011237,35.11,53.96,8,,,,,0,0
HODM,6/9/94,39.20375,2.434366667,35.45,42.54,8,,,,,0,0
HODM,6/10/94,45.295,13.86028654,37.69,79.25,8,,,,,0,0
HODM,6/11/94,79.41875,16.29213521,50.97,94.71,8,,,,,0,0
HODM,6/12/94,65.60875,7.710240755,56.33,77.43,8,,,,,0,0
HODM,6/13/94,74.0075,15.00116257,52.46,88.57,8,,,,,0,0
HODM,6/14/94,66,16.03538409,43.88,81.26,8,,,,,0,0
HODM,6/15/94,37.52375,2.912082895,34.46,41.67,8,,,,,0,0
HODM,6/16/94,65.97625,16.06701496,37.39,91.03,8,,,,,0,0
HODM,6/17/94,72.57125,9.786567233,60.72,88.11,8,,,,,0,0
HODM,6/18/94,77.82125,24.99019947,42.99,99.16,8,,,,,0,0
HODM,6/19/94,54.32375,8.580814043,46.97,66.74,8,,,,,0,0
HODM,6/20/94,55.2575,6.181189784,43.67,63.16,8,,,,,0,0
HODM,6/21/94,45.395,3.002988987,42.25,52.17,8,,,,,0,0
HODM,6/22/94,44.97375,1.466394388,43.25,47.49,8,,,,,0,0
HODM,6/23/94,50.1625,1.947348014,46.73,52.2,8,,,,,0,0
HODM,6/24/94,45.88,0.910996315,44.36,47.25,8,,,,,0,0
HODM,6/25/94,44.6075,3.526324473,38.18,49.19,8,,,,,0,0
HODM,6/26/94,85.62375,11.52850745,69.14,96.42,8,,,,,0,0
HODM,6/27/94,78.02625,14.87448432,64.84,96.24,8,,,,,0,0
HODM,6/28/94,89.39125,3.823582604,84.89,94.95,8,,,,,0,0
HODM,6/29/94,88.43,5.414509607,80.66,96.21,8,,,,,0,0
HODM,6/30/94,77.44,7.99571135,59.05,83.99,8,,,,,0,0
HODM,7/1/94,47.81625,4.446324124,38.67,52.31,8,,,,,0,0
HODM,7/2/94,46.1025,6.129574094,41.3,60.69,8,,,,,0,0
HODM,7/3/94,60.0675,7.1604524,48.15,68.8,8,,,,,0,0
HODM,7/4/94,42.17125,3.137439527,38.3,47.24,8,,,,,0,0
HODM,7/5/94,68.55875,12.8481421,54.14,91.23,8,,,,,0,0
HODM,7/6/94,90.1175,1.426121113,86.72,91.25,8,,,,,0,0
HODM,7/7/94,85.17625,8.11743439,73.66,92.05,8,,,,,0,0
HODM,7/8/94,76.39125,7.84213061,66.72,90.49,8,,,,,0,0
HODM,7/9/94,91.52125,1.330772466,90.16,93.66,8,,,,,0,0
HODM,7/10/94,89.285,0.55136195,88.33,89.94,8,,,,,0,0
HODM,7/11/94,70.66,8.129324344,61.73,86.1,8,,,,,0,0
HODM,7/12/94,50.84875,5.833426921,47.45,64.44,8,,,,,0,0
HODM,7/13/94,44.95875,4.028546131,38.67,51.33,8,,,,,0,0
HODM,7/14/94,55.14375,14.29126,37.78,72.06,8,,,,,0,0
HODM,7/15/94,54.31875,2.956781249,50.34,59.43,8,,,,,0,0
HODM,7/16/94,72.765,20.63246332,52.31,97.56,8,,,,,0,0
HODM,7/17/94,61.99,15.78618564,40.35,95.1,8,,,,,0,0
HODM,7/18/94,75.91875,14.95958884,60.59,94.08,8,,,,,0,0
HODM,7/19/94,57.5275,2.765495306,53.14,62.76,8,,,,,0,0
HODM,7/20/94,78.41,6.398537779,70.55,86.43,8,,,,,0,0
HODM,7/21/94,64.07375,3.219209919,59.85,68.72,8,,,,,0,0
HODM,7/22/94,58.15375,4.274940058,50.81,63.82,8,,,,,0,0
HODM,7/23/94,53.59,2.702142007,48.47,56.51,8,,,,,0,0
HODM,7/24/94,53.25,2.426361179,50.32,57.62,8,,,,,0,0
HODM,7/25/94,62.26375,4.439301546,54.97,67.12,8,,,,,0,0
HODM,7/26/94,65.3475,4.622561906,58.67,72.13,8,,,,,0,0
HODM,7/27/94,50.4975,10.44091779,36.77,63.81,8,,,,,0,0
HODM,7/28/94,26.94625,2.695514462,24.58,33.01,8,,,,,0,0
HODM,7/29/94,34.04875,19.9142393,25.87,83.3,8,,,,,0,0
HODM,7/30/94,77.72125,14.59955619,53.48,89.16,8,,,,,0,0
HODM,7/31/94,72.85375,14.42945691,53.22,86,8,,,,,0,0
HODM,8/1/94,55.68375,19.41347686,39.61,86.43,8,,,,,0,0
HODM,8/2/94,43.2725,1.256545719,41.28,44.73,8,,,,,0,0
HODM,8/3/94,45.30875,0.716687569,44.23,46.15,8,,,,,0,0
HODM,8/4/94,45.70875,0.597792068,44.3,46.18,8,,,,,0,0
HODM,8/5/94,46.15375,3.831974267,42.45,53.06,8,,,,,0,0
HODM,8/6/94,43.15875,1.036083801,41.35,44.74,8,,,,,0,0
HODM,8/7/94,44.39,3.201620126,41.45,49.5,8,,,,,0,0
HODM,8/8/94,43.45,1.94626382,41.78,47.92,8,,,,,0,0
HODM,8/9/94,51.93125,23.18545261,32.32,90.51,8,,,,,0,0
HODM,8/10/94,77.115,5.29645434,73.28,88.99,8,,,,,0,0
HODM,8/11/94,81.44,5.240019084,72.47,86.98,8,,,,,0,0
HODM,8/12/94,64.60125,6.280276239,58.23,75.92,8,,,,,0,0
HODM,8/13/94,71.18125,3.638588571,66.83,76.4,8,,,,,0,0
HODM,8/14/94,56.06375,7.210238628,48.26,67.34,8,,,,,0,0
HODM,8/15/94,47.39875,2.314787479,43.53,49.41,8,,,,,0,0
HODM,8/16/94,80.1325,12.95450363,49.49,87.45,8,,,,,0,0
HODM,8/17/94,83.36125,2.942702536,79.2,86.69,8,,,,,0,0
HODM,8/18/94,73.43125,4.777544012,67.71,80.16,8,,,,,0,0
HODM,8/19/94,66.2975,3.430150975,61.92,70.21,8,,,,,0,0
HODM,8/20/94,55.68875,4.618383878,50.44,62.09,8,,,,,0,0
HODM,8/21/94,59.5425,4.320528242,52.1,64.24,8,,,,,0,0
HODM,8/22/94,58.42375,12.25644197,49.37,85.17,8,,,,,0,0
HODM,8/23/94,74.04125,9.180377268,56.29,83.01,8,,,,,0,0
HODM,8/24/94,44.84,1.290160566,43.47,47.48,8,,,,,0,0
HODM,8/25/94,46.07,5.350508654,39.99,58.04,8,,,,,0,0
HODM,8/26/94,88,12.41400361,58.88,94.21,8,,,,,0,0
HODM,8/27/94,84.58125,11.18664438,64.52,93.1,8,,,,,0,0
HODM,8/28/94,48.4975,7.470092273,40.34,64.01,8,,,,,0,0
HODM,8/29/94,41.815,2.995797056,38.85,47.92,8,,,,,0,0
HODM,8/30/94,53.67625,19.06510045,34.86,86.27,8,,,,,0,0
HODM,8/31/94,73.26125,19.24815423,38.69,95.06,8,,,,,0,0
HODM,9/1/94,64.2025,17.1533743,51.67,97.58,8,,,,,0,0
HODM,9/2/94,71.78375,17.36101374,55.7,95.25,8,,,,,0,0
HODM,9/3/94,91.29125,3.714821424,85.7,95.26,8,,,,,0,0
HODM,9/4/94,71.75875,11.69356287,59.41,86.96,8,,,,,0,0
HODM,9/5/94,83.54375,10.72209992,61.97,90.6,8,,,,,0,0
HODM,9/6/94,80.7375,15.37916564,48.34,89.46,8,,,,,0,0
HODM,9/7/94,60.6525,20.00138834,36.32,84.25,8,,,,,0,0
HODM,9/8/94,32.1975,2.110678632,29.61,36.34,8,,,,,0,0
HODM,9/9/94,47.815,9.151928758,36.77,65.98,8,,,,,0,0
HODM,9/10/94,61.2,1.396383083,59.74,63.34,8,,,,,0,0
HODM,9/11/94,83.64,3.566667112,77.07,86.94,8,,,,,0,0
HODM,9/12/94,59.98375,12.17774778,44.94,76.25,8,,,,,0,0
HODM,9/13/94,45.1775,5.010371386,40.2,54.15,8,,,,,0,0
HODM,9/14/94,48.87,8.618614406,36.78,61.34,8,,,,,0,0
HODM,9/15/94,53.72875,8.08729769,45.62,71.67,8,,,,,0,0
HODM,9/16/94,44.17375,1.395502342,42.76,46.4,8,,,,,0,0
HODM,9/17/94,45.0875,5.504397593,40.92,57.48,8,,,,,0,0
HODM,9/18/94,49.04625,5.21737191,44.27,56.44,8,,,,,0,0
HODM,9/19/94,44.97375,2.269278913,41.83,48.33,8,,,,,0,0
HODM,9/20/94,44.13375,0.813562492,43.14,45.48,8,,,,,0,0
HODM,9/21/94,44.39875,0.64363782,43.49,45.27,8,,,,,0,0
HODM,9/22/94,42.31875,2.224907301,37.83,44.29,8,,,,,0,0
HODM,9/23/94,39.14875,1.325394146,37.16,40.98,8,,,,,0,0
HODM,9/24/94,58.83,10.67428418,43.7,77.64,8,,,,,0,0
HODM,9/25/94,65.8675,22.73385125,42.02,90.86,8,,,,,0,0
HODM,9/26/94,31.32,4.08616481,27.66,39.26,8,,,,,0,0
HODM,9/27/94,42.1975,5.503943392,30.81,49.15,8,,,,,0,0
HODM,9/28/94,42.36625,3.67555608,37.82,47.66,8,,,,,0,0
HODM,9/29/94,41.0925,1.483410645,39.46,43.94,8,,,,,0,0
HODM,9/30/94,40.76125,2.775430147,38.03,46.56,8,,,,,0,0
HODM,10/1/94,36.85875,2.320821514,34.47,41.1,8,,,,,0,0
HODM,10/2/94,50.66,20.02842123,31.94,83.53,8,,,,,0,0
HODM,10/3/94,68.54,6.280320738,62.41,81.2,8,,,,,0,0
HODM,10/4/94,55.24375,7.241818906,42.58,62.65,8,,,,,0,0
HODM,10/5/94,46.94,16.20200605,30.49,70.53,8,,,,,0,0
HODM,10/6/94,48.40625,14.95955398,36.51,79.29,8,,,,,0,0
HODM,10/7/94,64.81125,24.09587424,41.3,99.03,8,,,,,0,0
HODM,10/8/94,85.75,13.24528488,63.46,98.88,8,,,,,0,0
HODM,10/9/94,40.1375,4.288075659,35.32,47.94,8,,,,,0,0
HODM,10/10/94,39.8525,3.11844169,34.41,45.54,8,,,,,0,0
HODM,10/11/94,71.3675,21.91461857,39.03,97.06,8,,,,,0,0
HODM,10/12/94,88.96375,5.966788889,80.04,95.17,8,,,,,0,0
HODM,10/13/94,91.8775,4.828716925,83.16,95.39,8,,,,,0,0
HODM,10/14/94,75.67125,12.32381949,59.87,93.56,8,,,,,0,0
HODM,10/15/94,60.415,6.148419077,51.4,66.91,8,,,,,0,0
HODM,10/16/94,50.02875,4.068065309,45.94,56.66,8,,,,,0,0
HODM,10/17/94,60.40875,21.33295468,42.41,90.68,8,,,,,0,0
HODM,10/18/94,89.675,5.115765548,82.29,95.73,8,,,,,0,0
HODM,10/19/94,90.08,5.980697523,81.35,97.38,8,,,,,0,0
HODM,10/20/94,49.78625,19.68932991,36.56,92.56,8,,,,,0,0
HODM,10/21/94,89.41625,11.01099442,71.1,99.99,8,,,,,0,2
HODM,10/22/94,65.14625,2.727484123,61.06,68.04,8,,,,,0,0
HODM,10/23/94,87.1975,10.89608678,67.68,99.21,8,,,,,0,0
HODM,10/24/94,74.1025,24.41328546,40.94,99.5,8,,,,,0,0
HODM,10/25/94,69.6025,12.24303971,51.59,82.58,8,,,,,0,0
HODM,10/26/94,86.4125,9.353102999,73.57,96.43,8,,,,,0,0
HODM,10/27/94,80.48,8.329054139,66.3,89.81,8,,,,,0,0
HODM,10/28/94,89.775,5.219896003,83,96.48,8,,,,,0,0
HODM,10/29/94,48.44125,13.54603942,30.23,72.48,8,,,,,0,0
HODM,10/30/94,65.15,5.900300234,55.46,72.85,8,,,,,0,0
HODM,10/31/94,56.13,6.119866945,46.71,63.55,8,,,,,0,0
HODM,11/1/94,72.46375,9.711140786,60.06,92.71,8,,,,,0,0
HODM,11/2/94,56.29,23.93621524,33.29,99.99,8,,,,,0,1
HODM,11/3/94,57.96375,18.71707924,42.31,89.94,8,,,,,0,0
HODM,11/4/94,45.69625,4.623560587,41.53,54.93,8,,,,,0,0
HODM,11/5/94,59.7575,25.34554666,40.45,94.92,8,,,,,0,0
HODM,11/6/94,59.44125,15.20527769,41.54,88.58,8,,,,,0,0
HODM,11/7/94,67.6275,9.725666705,58.02,87.53,8,,,,,0,0
HODM,11/8/94,49.4125,9.535703959,36.81,60.59,8,,,,,0,0
HODM,11/9/94,80.0975,13.84083064,64.73,99.99,8,,,,,0,1
HODM,11/10/94,64.855,10.03099482,52.93,80.07,8,,,,,0,0
HODM,11/11/94,63.1075,7.453096672,53.97,73.1,8,,,,,0,0
HODM,11/12/94,65.59375,5.34136135,61.56,77.87,8,,,,,0,0
HODM,11/13/94,62.735,3.751868106,58.37,69,8,,,,,0,0
HODM,11/14/94,72.9625,14.21060243,56.54,97.86,8,,,,,0,0
HODM,11/15/94,85.1025,10.7166276,69.09,98.06,8,,,,,0,0
HODM,11/16/94,64.1075,11.86778804,44.83,79.04,8,,,,,0,0
HODM,11/17/94,55.1,5.279058358,47.51,60.98,8,,,,,0,0
HODM,11/18/94,75.555,16.8618767,61.01,97.72,8,,,,,0,0
HODM,11/19/94,84.7675,13.99351355,62.95,99.99,8,,,,,0,2
HODM,11/20/94,72.7,12.270039,50.84,85.49,8,,,,,0,0
HODM,11/21/94,77.17,15.62874732,61.94,98.48,8,,,,,0,0
HODM,11/22/94,90.775,8.745219102,75.85,99.71,8,,,,,0,0
HODM,11/23/94,59.27318182,9.09967461,46.8,94,44,,,,,0,0
HODM,11/24/94,77.88861111,14.6934927,59.67,98.42,72,,,,,0,0
HODM,11/25/94,48.92611111,15.01741239,24.3,87.32,72,,,,,0,0
HODM,11/26/94,78.43791667,12.28147912,60.65,98.35,72,,,,,0,0
HODM,11/27/94,81.27125,12.97602013,58.78,99.48,72,,,,,0,0
HODM,11/28/94,86.73527778,6.439174991,71.85,99.33,72,,,,,0,0
HODM,11/29/94,80.05972222,10.05544586,64.54,98.91,72,,,,,0,0
HODM,11/30/94,70.36027778,5.505845542,61.9,78.35,72,,,,,0,0
HODM,12/1/94,66.92041667,7.503854491,55.44,79.34,72,,,,,0,0
HODM,12/2/94,57.66236111,6.29565835,44.98,67.97,72,,,,,0,0
HODM,12/3/94,51.89111111,6.461810795,39.46,61.79,72,,,,,0,0
HODM,12/4/94,78.77819444,13.07758897,56.95,99.99,72,,,,,0,4
HODM,12/5/94,68.24319444,9.324419678,49.36,82.32,72,,,,,0,0
HODM,12/6/94,59.51194444,9.554328219,45.95,79.92,72,,,,,0,0
HODM,12/7/94,51.70319444,4.217575509,41.68,60.81,72,,,,,0,0
HODM,12/8/94,50.51944444,3.780634081,42.79,57.07,72,,,,,0,0
HODM,12/9/94,45.83333333,5.541056237,34.2,54.8,72,,,,,0,0
HODM,12/10/94,42.91847222,7.860062656,32.77,54.07,72,,,,,0,0
HODM,12/11/94,43.30972222,3.577097719,32,48.22,72,,,,,0,0
HODM,12/12/94,38.07958333,5.656639484,25.3,49.12,72,,,,,0,0
HODM,12/13/94,55.50097222,22.65030984,32.3,96.58,72,,,,,0,0
HODM,12/14/94,96.90041667,3.239881078,90.39,99.99,72,,,,,0,27
HODM,12/15/94,92.08915493,9.008305017,73.9,99.99,71,,,,,0,30
HODM,12/16/94,98.47277778,2.089489608,92.56,99.99,72,,,,,0,37
HODM,12/17/94,94.51166667,4.762904783,87.22,99.99,72,,,,,0,25
HODM,12/18/94,93.00402778,4.946323335,84.86,99.99,72,,,,,0,16
HODM,12/19/94,81.51555556,7.435941815,57.6,92.67,72,,,,,0,0
HODM,12/20/94,73.45513889,10.9402419,59.25,96.76,72,,,,,0,0
HODM,12/21/94,83.06013889,6.345444078,71.99,92.96,72,,,,,0,0
HODM,12/22/94,72.90013889,14.57750365,50.8,99.99,72,,,,,0,5
HODM,12/23/94,90.74319444,9.524191412,74.18,99.99,72,,,,,0,29
HODM,12/24/94,77.16097222,8.847367104,63.3,95.11,72,,,,,0,0
HODM,12/25/94,71.76458333,14.48507702,50.68,91.6,72,,,,,0,0
HODM,12/26/94,61.32319444,13.55121114,47.86,86.45,72,,,,,0,0
HODM,12/27/94,42.46680556,8.808433351,28.92,57.08,72,,,,,0,0
HODM,12/28/94,56.49180556,11.30915014,36.08,99.99,72,,,,,0,1
HODM,12/29/94,47.79597222,7.334545246,35.9,65.07,72,,,,,0,0
HODM,12/30/94,58.31652778,4.833143543,51.03,71.84,72,,,,,0,0
HODM,12/31/94,80.86902778,12.05511009,63.02,99.99,72,,,,,0,12
HODM,1/1/95,65.06666667,19.22284967,45.3,99.99,72,,,,,0,2
HODM,1/2/95,72.26930556,14.79757568,57.29,99.99,72,,,,,0,12
HODM,1/3/95,99.95541667,0.174468509,98.93,99.99,72,,,,,0,69
HODM,1/4/95,86.57222222,11.78157397,65.69,99.99,72,,,,,0,23
HODM,1/5/95,65.27847222,10.04793366,52.1,80.34,72,,,,,0,0
HODM,1/6/95,87.71597222,11.38716484,71.4,99.99,72,,,,,0,18
HODM,1/7/95,75.35805556,18.96594952,53.69,99.99,72,,,,,0,19
HODM,1/8/95,48.22777778,6.525099367,40.46,62.44,72,,,,,0,0
HODM,1/9/95,41.32625,11.18640793,22.5,62.39,72,,,,,0,0
HODM,1/10/95,46.41166667,5.559037053,27.07,53.32,72,,,,,0,0
HODM,1/11/95,58.33888889,11.72276533,45.76,85.48,72,,,,,0,0
HODM,1/12/95,97.20638889,3.862864115,86.25,99.99,72,,,,,0,38
HODM,1/13/95,94.69902778,7.782037671,72.88,99.99,72,,,,,0,26
HODM,1/14/95,89.02763889,11.14724617,68.44,99.99,72,,,,,0,22
HODM,1/15/95,85.23041667,12.58170698,56.6,99.99,72,,,,,0,4
HODM,1/16/95,61.2525,12.76535251,45.19,97.85,72,,,,,0,0
HODM,1/17/95,52.67541667,3.898249856,46.42,59.14,72,,,,,0,0
HODM,1/18/95,79.88388889,14.93209735,55.73,99.99,72,,,,,0,5
HODM,1/19/95,82.56041667,16.23209778,59.15,99.99,72,,,,,0,20
HODM,1/20/95,88.04847222,9.052030767,69.31,99.99,72,,,,,0,18